Wind_Speed
3 7 6 14 13 12 13 14 15 16 14 14 16 19 16 15 15 16 15 16 16 14 14 20 15 13 17 18 13 8 5 2 4 8 9 10 12 13 12 12 12 12 14 12
9 2 14 11 12 11 12 15 16 14 15 17 19 23 22 15 19 18 17 14 16 14 14 17 16 15 15 14 9 7 5 2 5 9 9 9 12 13 12 10 16 14 13 17
8 11 8 7 9 11 11 13 14 16 18 17 19 19 19 17 19 1 11 9 13 14 14 15 15 15 13 12 9 5 5 3 5 9 11 12 13 13 13 16 15 18 20 15
4 7 9 11 11 12 12 15 16 17 16 12 14 12 13 14 18 18 5 2 13 16 16 15 16 16 11 13 7 8 5 5 7 8 10 12 13 14 15 16 17 21 18 18
6 8 10 10 12 11 13 14 15 17 16 17 14 8 12 13 15 14 14 4 5 15 18 15 15 17 15 11 9 7 2 5 7 8 9 12 13 15 17 19 20 20 20 19
11 2 2 8 13 13 10 15 18 15 12 5 12 7 7 6 7 6 7 11 6 15 16 15 20 21 15 11 10 4 0 5 7 9 10 12 14 17 18 19 19 19 22 20
17 5 3 10 14 15 15 15 5 4 2 3 6 5 6 11 13 10 9 5 6 14 18 17 13 14 15 12 6 2 5 8 8 10 11 13 15 17 18 19 20 22 20 22
8 2 14 19 14 11 15 11 4 4 6 11 11 3 1 9 10 10 8 11 18 17 15 14 14 16 14 9 5 7 7 8 10 11 12 14 16 17 18 19 21 20 22 23
8 6 23 15 9 8 10 9 4 7 8 4 5 4 9 6 7 8 7 12 15 13 12 14 16 14 13 10 9 8 9 9 10 12 14 15 17 18 19 21 20 22 22 24
3 8 11 17 17 8 5 8 4 4 5 5 5 4 5 10 9 9 6 10 11 10 14 11 13 14 13 11 7 7 8 9 10 12 14 16 18 19 20 21 23 23 24 25
12 2 12 16 7 10 8 3 5 5 2 2 5 1 5 9 10 6 6 8 8 13 11 10 13 14 12 10 8 8 9 9 11 12 14 17 19 20 21 22 23 24 25 26
8 6 11 23 17 15 10 7 4 3 2 2 2 1 9 13 5 7 8 10 12 11 10 10 13 13 10 9 9 8 8 10 11 12 15 17 19 21 22 23 25 25 26 26
9 5 8 6 8 15 10 9 5 5 2 3 3 2 12 14 7 8 9 10 10 11 11 10 11 11 10 8 9 9 9 10 12 14 16 18 20 21 23 24 26 25 26 24
2 7 4 8 15 13 15 18 6 4 2 2 3 7 11 11 6 10 10 10 11 10 12 9 9 10 10 9 10 8 9 11 13 15 17 18 21 22 23 24 25 25 25 24
6 11 16 17 19 19 19 18 13 4 8 4 5 7 10 9 14 11 12 12 13 12 11 10 9 10 9 10 8 9 11 12 14 16 17 20 21 22 24 24 26 26 26 27
14 10 17 20 17 19 14 11 9 10 7 11 11 6 8 6 12 12 13 14 13 12 11 11 10 11 9 11 8 9 10 12 15 17 18 20 22 23 25 25 27 28 29 28
8 6 11 6 14 17 2 7 12 6 11 8 2 11 9 5 11 12 13 13 12 12 12 11 10 11 11 10 9 10 11 13 16 17 19 21 23 24 25 26 27 28 29 26
7 11 8 10 14 1 5 19 13 19 18 16 13 7 6 9 12 12 12 12 13 13 12 11 13 14 13 12 9 9 11 14 16 18 20 21 23 24 25 27 29 31 29 28
2 6 5 5 7 5 5 13 6 11 18 16 13 9 7 15 14 12 12 13 13 12 14 15 16 14 14 11 9 10 13 16 17 18 20 21 23 25 26 29 30 31 30 32
5 4 3 4 5 3 7 26 17 5 11 17 13 5 9 12 8 8 12 14 15 18 18 18 16 16 14 11 11 13 15 16 16 17 19 22 24 26 28 29 29 30 31 30
4 2 4 4 4 5 10 26 11 10 9 14 13 1 5 4 6 15 16 15 19 20 20 19 16 15 14 12 12 14 14 15 15 17 19 21 24 27 28 28 30 30 31 33
3 5 1 2 3 4 20 20 13 9 12 12 12 11 12 14 17 17 16 15 19 21 20 18 17 15 14 12 13 13 14 13 14 16 19 22 24 26 29 31 33 35 33 32
1 1 4 4 5 11 15 15 15 14 15 7 8 6 10 12 14 15 14 14 19 20 18 18 17 16 13 13 14 14 12 12 14 18 20 23 26 24 25 30 36 36 36 32
6 2 3 8 2 15 17 11 17 16 15 12 7 3 10 11 13 14 13 14 17 18 18 19 17 15 14 16 15 14 12 12 14 15 17 18 23 33 35 31 29 38 38 34
10 12 8 12 15 17 10 21 21 21 15 12 7 5 10 13 13 13 12 15 16 17 19 17 17 16 15 16 15 13 12 12 13 14 15 16 17 19 25 33 34 34 34 38
7 4 1 4 13 13 19 24 27 18 13 10 9 7 11 15 13 16 14 17 17 18 18 17 17 17 16 16 14 13 12 12 12 13 13 14 15 16 16 17 20 26 28 33
Wind_Direction
310 305 324 7 358 338 321 304 301 299 304 313 301 298 282 281 222 199 200 188 168 173 169 156 164 141 123 126 138 152 149 75 340 345 346 336 328 323 320 313 308 322 309 310
295 308 16 354 328 300 286 295 300 318 338 334 312 295 291 276 284 205 192 186 163 162 162 145 130 135 127 129 143 147 114 80 5 348 325 336 330 316 319 338 336 322 338 323
305 35 354 321 308 308 316 308 335 319 315 300 291 307 320 337 19 89 78 188 153 149 154 132 135 136 131 140 145 140 105 39 16 352 349 351 335 339 343 338 332 340 326 315
326 356 326 320 304 339 316 342 329 310 308 303 307 302 55 41 49 34 53 80 173 150 135 138 144 136 158 129 130 108 77 40 15 5 360 352 351 345 335 339 335 332 321 327
52 336 337 311 356 332 307 325 303 284 277 283 285 296 88 55 48 30 333 356 149 140 135 133 142 142 127 126 124 101 99 49 19 6 5 355 350 345 332 333 336 326 337 325
339 252 289 354 323 294 269 289 296 332 304 318 13 337 43 25 34 53 4 321 140 125 124 126 119 114 124 129 113 125 27 55 22 10 2 357 350 344 340 333 337 336 329 332
325 116 33 27 331 337 347 317 338 340 339 299 285 324 61 17 13 356 333 90 101 114 110 106 111 128 120 105 115 175 36 36 26 11 0 356 352 344 341 342 340 336 334 332
340 266 14 347 323 320 307 329 47 298 327 316 336 78 303 327 29 10 26 87 88 95 104 113 116 113 114 117 99 42 33 34 19 10 3 357 352 347 342 344 338 340 336 331
345 283 336 312 346 321 332 351 236 308 349 313 1 113 25 63 71 42 60 94 101 100 107 102 107 112 114 100 71 43 36 31 20 10 3 359 351 351 350 344 347 342 338 331
224 294 302 337 321 288 338 2 360 10 360 333 317 28 22 22 40 84 88 90 105 110 99 108 114 115 104 94 83 60 43 30 19 11 3 355 355 354 352 354 352 342 341 339
335 221 295 314 310 13 344 353 38 102 60 351 319 74 299 34 36 79 106 135 121 104 113 121 117 111 112 98 84 55 38 28 17 10 2 2 360 356 360 357 347 349 347 344
349 296 295 295 290 20 354 64 96 112 133 229 235 303 331 336 83 125 126 105 102 116 127 120 118 118 118 99 77 62 42 25 17 11 8 10 360 2 2 356 353 353 351 350
332 317 320 301 47 357 334 345 118 116 108 230 283 327 324 321 96 112 118 120 127 132 124 122 126 117 101 88 72 57 34 22 17 14 13 10 5 6 2 360 358 357 352 0
233 282 302 278 296 279 291 306 333 183 182 196 228 293 305 306 152 132 137 142 139 136 133 132 118 107 97 83 71 54 38 26 19 17 16 8 10 7 3 3 2 356 0 1
298 308 303 301 299 299 291 293 299 198 195 189 194 199 282 282 144 145 145 148 146 143 138 132 120 110 103 89 74 50 37 29 26 20 15 13 11 9 9 9 1 359 1 2
319 296 311 289 281 272 281 306 336 347 295 214 248 350 300 65 112 137 151 151 150 146 139 126 120 112 98 85 71 52 40 32 30 24 17 15 13 14 11 6 2 7 7 20
305 293 307 288 341 317 299 323 21 242 267 102 160 220 246 240 132 145 153 154 149 141 132 125 116 106 94 91 77 60 47 38 36 27 21 17 14 17 12 6 8 13 14 11
284 300 292 298 312 335 313 299 287 57 42 31 31 28 121 111 126 138 152 148 146 135 128 121 111 103 101 92 86 68 52 47 41 31 22 20 16 17 12 12 12 13 11 17
221 303 312 327 324 305 285 331 343 82 46 27 17 60 89 104 116 128 142 139 133 125 123 115 112 113 104 102 89 72 57 49 42 33 24 18 16 18 15 16 14 15 15 16
52 74 10 336 311 305 324 331 319 112 33 5 9 26 122 147 127 132 134 127 123 127 122 119 119 112 109 103 86 71 61 54 43 36 31 23 17 22 20 16 16 18 22 20
340 130 230 247 262 276 293 328 17 57 335 357 343 77 157 224 142 137 123 125 131 126 123 123 121 115 114 107 94 77 68 58 49 43 37 32 26 29 24 21 19 18 22 26
328 341 9 290 259 271 8 342 24 336 322 345 343 47 79 96 112 121 128 133 129 123 131 127 117 119 117 112 97 84 74 66 57 48 42 36 32 34 30 30 32 28 22 25
13 98 325 302 288 313 318 295 295 341 334 342 345 56 114 121 125 127 132 130 126 138 133 126 124 122 117 108 101 93 82 73 65 59 53 47 45 45 38 34 35 31 27 23
348 336 286 316 325 329 305 319 352 337 322 340 346 120 133 134 130 131 133 128 137 140 133 127 129 124 113 103 107 102 95 83 73 65 61 52 45 49 52 50 38 39 32 27
298 297 299 290 295 318 315 330 326 322 326 342 324 159 144 139 137 135 135 137 145 139 127 137 130 126 121 117 116 112 104 93 82 73 65 59 57 47 45 50 48 47 42 42
293 33 321 290 319 303 294 309 307 321 341 339 299 145 147 147 144 141 142 146 144 132 138 135 132 130 128 127 124 119 112 103 96 81 69 66 60 55 52 44 42 43 43 41
Height
733 749 747 744 742 744 747 748 745 732 719 723 725 722 716 715 715 722 727 734 744 754 762 772 781 788 794 800 806 811 814 816 816 814 813 812 811 809 808 806 804 803 802 800
743 752 742 743 745 747 749 748 743 729 724 733 735 731 720 712 707 709 717 727 740 751 760 769 782 790 796 803 808 812 814 816 816 815 813 812 810 808 805 804 802 801 799 798
759 752 747 750 751 750 747 749 749 753 742 736 733 732 719 707 705 699 714 723 735 750 761 772 782 792 799 805 810 813 815 816 816 815 813 811 809 806 804 803 801 798 797 795
753 748 752 752 753 748 760 744 749 752 753 760 734 754 754 734 732 732 735 736 740 747 758 772 781 792 801 807 812 814 816 816 816 815 813 811 809 807 805 802 799 797 795 792
761 757 759 760 757 753 760 748 751 748 746 743 739 749 752 741 753 757 745 738 739 746 758 772 783 792 801 809 813 815 817 816 816 815 813 812 810 808 804 802 798 796 793 790
753 742 751 759 754 748 745 750 743 741 743 762 755 761 770 766 759 753 751 745 742 750 762 773 783 794 803 810 814 817 816 815 815 815 813 812 809 807 803 800 797 795 792 788
761 751 750 757 763 750 749 757 774 782 773 778 749 760 788 769 764 761 755 746 749 754 766 779 790 797 805 811 815 816 815 815 815 814 813 811 809 806 803 800 797 794 790 786
799 785 774 767 767 770 763 761 788 805 786 774 745 783 794 775 768 764 753 752 766 771 777 784 793 801 808 814 816 817 816 816 816 815 813 811 809 806 804 801 797 793 789 784
828 804 781 768 763 766 767 773 769 779 779 780 770 786 784 767 776 774 766 764 774 779 784 791 799 807 812 815 818 819 818 818 817 816 813 811 809 806 803 800 797 792 787 781
827 827 791 777 771 760 767 764 788 792 809 800 786 796 794 779 774 775 775 778 780 784 792 798 805 810 815 819 821 821 820 820 818 816 814 812 809 807 803 800 796 790 785 779
813 822 805 791 778 787 792 786 796 809 822 817 806 802 784 777 781 783 782 784 785 791 798 803 809 814 818 821 822 822 822 820 819 817 815 813 810 807 804 800 794 789 783 776
821 823 817 800 784 789 779 788 811 815 816 817 819 800 793 785 780 784 784 786 791 797 802 807 812 817 820 821 823 824 822 821 820 818 816 814 811 808 804 799 794 788 782 775
833 825 823 794 801 806 799 787 799 817 820 817 811 807 791 783 781 784 789 793 797 800 805 810 815 818 821 823 824 824 824 823 821 819 817 815 812 808 804 800 795 788 781 775
837 829 835 833 821 805 801 786 781 800 813 810 812 809 798 784 783 788 793 796 798 803 808 813 816 820 823 825 826 826 825 824 823 821 819 815 813 809 806 801 795 788 782 774
828 832 824 813 805 798 794 783 778 794 798 806 805 811 787 777 780 787 793 796 800 805 809 813 818 822 825 827 828 828 827 826 825 823 820 818 816 812 808 802 795 789 782 774
835 832 827 817 796 787 784 774 774 777 776 782 783 797 775 770 777 787 792 795 800 805 809 814 819 823 826 828 830 830 830 829 828 825 823 821 818 815 810 803 796 791 784 778
843 836 826 813 793 790 792 786 777 789 778 778 801 786 774 776 779 787 791 795 800 805 810 816 820 825 829 831 832 833 833 832 831 828 826 824 822 818 812 806 799 794 787 781
848 838 823 817 803 804 804 786 768 766 765 763 765 763 762 765 775 784 789 794 800 806 812 818 823 829 832 835 836 836 835 835 834 832 830 828 825 821 815 809 802 796 789 783
850 848 840 831 825 818 809 802 777 776 782 773 774 770 767 771 779 787 789 795 802 808 815 821 827 832 835 837 838 838 838 838 838 837 834 831 829 825 819 813 807 802 796 789
848 853 858 847 835 817 811 797 761 760 797 778 777 773 773 776 787 793 792 799 806 812 818 825 831 835 838 840 841 841 842 843 843 842 840 837 833 829 824 820 814 809 804 798
841 854 854 846 844 830 826 808 774 806 815 786 778 773 773 777 773 786 794 803 810 815 822 829 833 837 841 843 844 845 847 847 848 847 845 842 838 835 831 826 821 816 810 805
850 853 844 842 838 828 830 818 816 815 801 791 783 780 779 782 783 791 799 806 812 819 827 831 836 840 844 846 847 849 851 853 852 851 849 847 844 841 837 832 827 821 816 811
853 865 861 860 841 834 841 834 821 808 801 793 789 784 785 789 793 798 804 810 816 823 828 833 839 843 846 848 851 853 856 856 856 856 855 853 849 847 844 840 835 829 824 820
851 853 854 856 834 836 835 823 817 810 801 793 789 787 789 794 797 802 808 814 821 825 830 836 841 845 849 852 855 857 858 860 860 860 860 859 856 854 850 847 845 840 835 831
854 850 848 849 842 838 818 824 816 807 798 794 790 788 790 796 801 806 812 817 822 827 833 839 843 847 852 855 857 860 861 863 863 864 865 864 863 861 859 856 854 851 849 845
847 856 863 852 853 854 837 826 816 805 797 796 792 789 791 797 804 809 815 820 824 829 835 840 845 849 854 857 860 862 864 866 866 867 868 869 868 868 866 865 864 862 858 855